Location: El Diablo
(32.4667°N, 116.4500°W)
Time: 02:21:40
(UTC+00:00)

Cosmos-2242 - Pass Details

Date: 10 September 2024
Orbit: 577 x 600 km, 82.5° (Epoch: 06 October)

Event Time Altitude Azimuth Distance (km) Brightness Sun altitude
Rises 12:40:38 0° 170° (S) 2,780 6.4 -10.5°
Reaches altitude 10° 12:42:53 10° 163° (SSE) 1,888 5.6 -10.0°
Maximum altitude 12:46:48 42° 92° (E) 841 4.4 -9.2°
Drops below altitude 10° 12:50:47 10° 22° (NNE) 1,912 6.0 -8.4°
Sets 12:53:04 0° 15° (NNE) 2,821 6.8 -7.9°
